These data are preliminary and have not undergone final quality control by the National Climatic Data Center (NCDC). Therefore, these data are subject to revision. Final and certified climate data can be accessed at the NCDC - http://www.ncdc.noaa.gov.

Regional Weather Roundup


000
ASUS46 KPQR 140210
RWROR

OREGON REGIONAL WEATHER ROUNDUP
NATIONAL WEATHER SERVICE PORTLAND OR
700 PM PDT SUN JUN 13 2021

NOTE: "FAIR" INDICATES FEW OR NO CLOUDS BELOW 12,000 FEET WITH
NO SIGNIFICANT WEATHER AND/OR OBSTRUCTIONS TO VISIBILITY.

ORZ001>013-140300-
NORTHWEST OREGON


CITY           SKY/WX    TMP DP  RH WIND       PRES   REMARKS
ASTORIA        PTSUNNY   58  56  93 SW5       29.89F
TILLAMOOK      LGT RAIN  59  55  88 S3        29.93S
NEWPORT        CLOUDY    55  55 100 SE3       29.95R
FLORENCE       CLOUDY    58  58 100 CALM      29.93F
PORTLAND       LGT RAIN  64  60  87 E3        29.90F
VANCOUVER WA   CLOUDY    64  57  78 E3        29.89F
SCAPPOOSE      LGT RAIN  64  60  87 N3        29.90S
HILLSBORO      LGT RAIN  63  61  93 S7        29.91R
AURORA         CLOUDY    63  61  93 SE5       29.93S
MCMINNVILLE    CLOUDY    63  60  90 SE5       29.91S
SALEM          CLOUDY    66  59  78 CALM      29.91S
CORVALLIS      LGT RAIN  63  61  93 E3        29.93R
EUGENE         LGT RAIN  62  59  90 W3        29.93R
CRESWELL       CLOUDY    63  61  94 NW6       29.92S FOG

ORZ021-028-140300- SOUTHWEST OREGON CITY SKY/WX TMP DP RH WIND PRES REMARKS NORTH BEND LGT RAIN 61 59 94 W5 29.94S BROOKINGS RAIN 57 57 100 CALM 29.95S VSB 1 ROSEBURG LGT RAIN 64 60 87 N8 29.90S SEXTON SUMMIT CLOUDY 55 51 86 VRB5 29.97R GRANTS PASS CLOUDY 66 57 72 CALM 29.93R MEDFORD CLOUDY 71 53 52 N7 29.89R
ORZ014>016-041-140300- COLUMBIA GORGE CITY SKY/WX TMP DP RH WIND PRES REMARKS TROUTDALE LGT RAIN 64 60 87 N3 29.90F HOOD RIVER LGT RAIN 63 59 88 NW6 29.90R THE DALLES LGT RAIN 69 57 65 NW22G32 29.84R
ORZ029>031-041-044-049-050-061>064-502-503-505>511-140300- EASTERN OREGON CITY SKY/WX TMP DP RH WIND PRES REMARKS MADRAS CLOUDY 66 50 55 NW18G24 29.89R REDMOND PTSUNNY 68 50 52 NW16 29.88R BEND PTSUNNY 66 50 55 NW15 29.91R PRINEVILLE MOSUNNY 70 54 56 N16G24 29.89R KLAMATH FALLS LGT RAIN 74 40 29 S17G29 29.90R LAKEVIEW SUNNY 77 45 32 SW20G25 29.94R HERMISTON MOSUNNY 91 51 25 W10 29.69R PENDLETON MOSUNNY 89 49 25 W10 29.71R JOHN DAY MOSUNNY 89 37 16 SW12 29.78S MEACHAM MOSUNNY 74 50 42 CALM 29.84R LA GRANDE MOSUNNY 86 54 33 NW17 29.71F BAKER CITY MOSUNNY 91 45 20 S10 29.76F BURNS MOSUNNY 88 40 18 SW14 29.83R ROME N/A 92 33 12 SW16G23 29.82F ONTARIO SUNNY 96 48 19 CALM 29.68F HX 92
OTHER REGIONAL REPORTS CITY SKY/WX TMP DP RH WIND PRES REMARKS SEATTLE LGT RAIN 60 60 100 S3 29.93S FOG SPOKANE PTSUNNY 86 48 26 NE8 29.75F VANCOUVER BC LGT RAIN 61 59 94 E3 29.90R PRINCE GEORGE SUNNY 68 48 49 S13 29.76S DAWSON CREEK MOSUNNY 68 43 40 N5 29.82S WHITEHORSE MOSUNNY 61 41 48 NW3 29.78S BOISE NOT AVBL REDDING MOSUNNY 90 50 25 S29G38 29.74S SAN FRANCISCO MOSUNNY 71 58 63 W17 29.96S